Weather History for Poplar Bluff, MO

Change the Weather History Date:

Wednesday, July 24, 2013

  Actual Average Record
Temperature  
Mean Temperature 76 °F -  
Max Temperature 84 °F 89 °F 106 °F (1934)
Min Temperature 68 °F 69 °F 55 °F (1927)
Cooling Degree Days 12    
Growing Degree Days 26 (Base 50)    
Moisture  
Dew Point 67 °F    
Average Humidity 76    
Maximum Humidity 93    
Minimum Humidity 47    
Precipitation  
Precipitation 0.00 in - - ()
Sea Level Pressure  
Sea Level Pressure 29.92 in    
Wind  
Wind Speed 5 mph (NNE)    
Max Wind Speed 10 mph    
Max Gust Speed 17 mph    
Visibility 10 miles    
Events      
Averages and records for this station are not official NWS values.
T = Trace of Precipitation, MM = Missing Value Source: NWS Daily Summary

Daily Weather History Graph

Daily Weather History Graph

Search for Another Location

Airport:

Trip Planner

Search our weather history database for the weather conditions in past years. The results will help you decide how hot, cold, wet, or windy it might be!

Date:

Astronomy

Jul. 24, 2013 Rise Set
Actual Time 6:00 AM CDT 8:14 PM CDT
Civil Twilight 5:31 AM CDT 8:43 PM CDT
Nautical Twilight 4:55 AM CDT 9:19 PM CDT
Astronomical Twilight 4:16 AM CDT 9:58 PM CDT
Moon 9:26 PM CDT (7/24) 8:15 AM CDT (7/24)
Length of Visible Light 15h 11m
Length of Day
14h 13m
Waning Gibbous, 94% of the Moon is Illuminated
Jul 24
Waning Gibbous
Jul 29
Last Quarter
Aug 6
New
Aug 14
First Quarter
Aug 20
Full

Hourly Weather History & Observations

Time (CDT) Temp. Heat Index Dew Point Humidity Pressure Visibility Wind Dir Wind Speed Gust Speed Precip Events Conditions
12:53 AM 71.1 °F - 68.0 °F 90% 29.86 in 10.0 mi Calm Calm - N/A   Clear
1:53 AM 71.1 °F - 68.0 °F 90% 29.89 in 7.0 mi SE 5.8 mph - N/A   Scattered Clouds
2:53 AM 73.0 °F - 68.0 °F 84% 29.87 in 9.0 mi Calm Calm - N/A   Clear
3:53 AM 71.1 °F - 69.1 °F 93% 29.86 in 10.0 mi West 3.5 mph - N/A   Clear
4:53 AM 71.1 °F - 68.0 °F 90% 29.85 in 10.0 mi WNW 4.6 mph - N/A   Clear
5:53 AM 71.1 °F - 68.0 °F 90% 29.85 in 10.0 mi WNW 3.5 mph - N/A   Clear
6:27 AM 69.8 °F - 66.2 °F 88% 29.89 in 9.0 mi NNW 5.8 mph - N/A   Partly Cloudy
6:53 AM 70.0 °F - 66.9 °F 90% 29.88 in 9.0 mi North 4.6 mph - N/A   Mostly Cloudy
7:28 AM 71.6 °F - 68.0 °F 88% 29.90 in 10.0 mi North 4.6 mph - N/A   Scattered Clouds
7:53 AM 71.1 °F - 68.0 °F 90% 29.89 in 10.0 mi North 6.9 mph - N/A   Clear
8:22 AM 73.4 °F - 68.0 °F 83% 29.91 in 10.0 mi North 10.4 mph - N/A   Mostly Cloudy
8:53 AM 73.0 °F - 68.0 °F 84% 29.91 in 10.0 mi NNE 9.2 mph - N/A   Overcast
9:53 AM 75.0 °F - 68.0 °F 79% 29.92 in 10.0 mi NE 8.1 mph 17.3 mph N/A   Overcast
10:53 AM 75.0 °F - 69.1 °F 82% 29.94 in 10.0 mi NNE 9.2 mph - N/A   Overcast
11:34 AM 78.8 °F - 69.8 °F 74% 29.96 in 10.0 mi NE 8.1 mph - N/A   Overcast
11:53 AM 77.0 °F - 69.1 °F 76% 29.95 in 10.0 mi North 8.1 mph - N/A   Overcast
12:53 PM 78.1 °F - 69.1 °F 74% 29.96 in 10.0 mi North 8.1 mph - N/A   Overcast
1:53 PM 79.0 °F - 69.1 °F 72% 29.94 in 10.0 mi NNE 8.1 mph - N/A   Overcast
2:44 PM 82.4 °F 86.3 °F 69.8 °F 66% 29.96 in 10.0 mi NE 9.2 mph - N/A   Scattered Clouds
2:53 PM 80.1 °F 82.9 °F 69.1 °F 69% 29.95 in 10.0 mi NE 4.6 mph - N/A   Scattered Clouds
3:53 PM 82.9 °F 85.4 °F 66.9 °F 58% 29.93 in 10.0 mi ENE 4.6 mph - N/A   Partly Cloudy
4:53 PM 84.0 °F 85.8 °F 64.9 °F 53% 29.93 in 10.0 mi NE 3.5 mph - N/A   Partly Cloudy
5:53 PM 84.0 °F 84.5 °F 62.1 °F 47% 29.92 in 10.0 mi NNE 6.9 mph - N/A   Clear
6:53 PM 82.9 °F 83.7 °F 62.1 °F 49% 29.92 in 10.0 mi NNE 6.9 mph - N/A   Clear
7:53 PM 78.1 °F - 62.1 °F 58% 29.93 in 10.0 mi NNE 4.6 mph - N/A   Clear
8:53 PM 73.9 °F - 64.0 °F 71% 29.94 in 10.0 mi NE 4.6 mph - N/A   Clear
9:53 PM 72.0 °F - 62.1 °F 71% 29.97 in 10.0 mi NNE 4.6 mph - N/A   Clear
10:53 PM 70.0 °F - 61.0 °F 73% 29.99 in 10.0 mi NE 3.5 mph - N/A   Clear
11:53 PM 68.0 °F - 60.1 °F 76% 30.00 in 10.0 mi North 4.6 mph - N/A   Clear